Regional Weather Roundup
Issued by NWS

Home | Current Version | Previous Version | Text Only | Print | Product List | Glossary On
Versions: 1 2 3 4 5 6 7 8 9 10 11 12 13 14 15 16 17 18 19 20 21 22 23 24 25 26 27 28 29 30 31 32 33 34 35 36 37 38 39 40 41 42 43 44 45 46 47 48 49 50
000
ASUS43 KIND 260659
RWRIN

WEATHER ROUNDUP FOR INDIANA
NATIONAL WEATHER SERVICE INDIANAPOLIS IN
300 AM EDT SUN OCT 26 2014

NOTE: "FAIR" INDICATES FEW OR NO CLOUDS BELOW 12,000 FEET WITH NO
SIGNIFICANT WEATHER AND/OR OBSTRUCTIONS TO VISIBILITY.

* - STATION DOES NOT REPORT WEATHER SUCH AS PRECIPITATION OR FOG.

+ - STATION NOT QUALITY CONTROLLED BY THE NATIONAL WEATHER SERVICE.
    USE DATA WITH CAUTION...ESPECIALLY DEWPOINT AND RELATIVE
    HUMIDITY OBSERVATIONS.

INZ001>003-010>013-019-020-260800-
NORTHWEST INDIANA

CITY           SKY/WX    TMP DP  RH WIND       PRES   REMARKS
VALPARAISO     NOT AVBL

$$

LMZ046-743>745-260800-
SOUTHERN LAKE MICHIGAN

STATION/POSITION TIME  TEMP WIND        PRES
                       AIR  DIR/SP/G
                 (UTC) (F)  (DEG/KT/KT) (MB)
MICHIGAN CITY    0600   57  290/ 18/ 20   N/A

$$

INZ004-005-014>016-021>024-260800-
NORTH CENTRAL INDIANA

CITY           SKY/WX    TMP DP  RH WIND       PRES   REMARKS
GOSHEN         CLEAR     45  33  63 W7        29.94R
SOUTH BEND     CLEAR     50  35  56 NW9       29.96R

$$

INZ006>009-017-018-025>027-260800-
NORTHEAST INDIANA

CITY           SKY/WX    TMP DP  RH WIND       PRES   REMARKS
ANGOLA *+      CLEAR     46  34  61 W3        29.91S
FORT WAYNE     CLEAR     45  34  65 W8        29.95R

$$

INZ028-029-035-036-043>045-051>053-260800-
WEST CENTRAL INDIANA

CITY           SKY/WX    TMP DP  RH WIND       PRES   REMARKS
GREENCASTLE +  CLEAR     54  37  54 CALM      30.00S
LAFAYETTE      CLEAR     49  33  54 NW7       29.99R
TERRE HAUTE    CLEAR     54  41  61 CALM      30.01R

$$

INZ030>032-037>040-046>048-054>057-064-065-260800-
CENTRAL INDIANA

CITY           SKY/WX    TMP DP  RH WIND       PRES   REMARKS
INDIANAPOLIS   CLEAR     51  34  52 NW9       29.98R
-EAGLE CREEK   CLEAR     52  36  54 NW6       29.98R
KOKOMO *+      CLEAR     46  34  61 W6        29.97S
MT COMFORT *+  CLEAR     52  23  32 NW7       29.98R
SHELBYVILLE    CLEAR     51  36  56 NW6       29.97S

$$

INZ033-034-041-042-049-050-058-059-260800-
EAST CENTRAL INDIANA

CITY           SKY/WX    TMP DP  RH WIND       PRES   REMARKS
MUNCIE         CLEAR     50  34  54 W7        29.96R

$$

INZ060-061-067>069-081>083-085>088-260800-
SOUTHWEST INDIANA

CITY           SKY/WX    TMP DP  RH WIND       PRES   REMARKS
EVANSVILLE     CLEAR     53  51  93 CALM      30.00R
HUNTINGBURG *+ CLEAR     59  48  67 N7        30.00R

$$

INZ062-063-066-070>080-084-089>092-260800-
SOUTH CENTRAL AND SOUTHEAST INDIANA

CITY           SKY/WX    TMP DP  RH WIND       PRES   REMARKS
BLOOMINGTON    CLEAR     54  41  61 N3        29.99R
SEYMOUR +      CLEAR     52  43  71 NW5       29.98R

$$




USA.gov is the U.S. government's official web portal to all federal, state and local government web resources and services.